This is the latest recevied weather packets stored in our database for station/object K3TLB-13. If no packets are shown the sender has not sent any weather packets the latest 1 day(s).
| Time | Temp. | Humidity | Pressure | Rain* | Wind** | Luminosity | Snow |
|---|---|---|---|---|---|---|---|
| 1778026440 | 23.89° C | 35% | 1008 hPa | 0 mm | 2.24 m/s, 162° | - | - |
| 1778026260 | 23.89° C | 35% | 1007.9 hPa | 0 mm | 2.24 m/s, 180° | - | - |
| 1778026204 | 23.89° C | 35% | 1007.9 hPa | 0 mm | 2.24 m/s, 180° | - | - |
| 1778026140 | 23.89° C | 35% | 1007.9 hPa | 0 mm | 2.24 m/s, 180° | - | - |
| 1778025935 | 23.89° C | 35% | 1007.9 hPa | 0 mm | 1.79 m/s, 223° | - | - |
| 1778025880 | 23.89° C | 35% | 1007.9 hPa | 0 mm | 1.79 m/s, 223° | - | - |
| 1778025840 | 23.89° C | 35% | 1007.9 hPa | 0 mm | 1.79 m/s, 223° | - | - |
| 1778025540 | 23.89° C | 35% | 1007.8 hPa | 0 mm | 1.79 m/s, 143° | - | - |
| 1778025242 | 24.44° C | 36% | 1007.9 hPa | 0 mm | 1.79 m/s, 185° | - | - |
| 1778024943 | 24.44° C | 35% | 1007.8 hPa | 0 mm | 1.79 m/s, 146° | - | - |
| 1778024640 | 24.44° C | 35% | 1007.9 hPa | 0 mm | 2.24 m/s, 188° | - | - |
| 1778024404 | 24.44° C | 35% | 1007.9 hPa | 0 mm | 2.68 m/s, 139° | - | - |
| 1778024340 | 24.44° C | 35% | 1007.9 hPa | 0 mm | 2.68 m/s, 139° | - | - |
| 1778024040 | 25° C | 35% | 1007.8 hPa | 0 mm | 3.13 m/s, 197° | - | - |
| 1778023740 | 24.44° C | 35% | 1007.7 hPa | 0 mm | 2.24 m/s, 194° | - | - |
| 1778023441 | 25° C | 35% | 1007.7 hPa | 0 mm | 1.79 m/s, 170° | - | - |
| 1778023203 | 25° C | 35% | 1007.8 hPa | 0 mm | 2.24 m/s, 96° | - | - |
| 1778023147 | 25° C | 35% | 1007.8 hPa | 0 mm | 2.24 m/s, 96° | - | - |
| 1778022840 | 25° C | 34% | 1007.7 hPa | 0 mm | 2.24 m/s, 246° | - | - |
| 1778022540 | 25° C | 34% | 1007.7 hPa | 0 mm | 2.24 m/s, 169° | - | - |
| 1778022296 | 25° C | 35% | 1007.7 hPa | 0 mm | 2.68 m/s, 238° | - | - |
| 1778022241 | 25° C | 35% | 1007.7 hPa | 0 mm | 2.68 m/s, 238° | - | - |
| 1778021940 | 25° C | 33% | 1007.6 hPa | 0 mm | 2.24 m/s, 196° | - | - |
| 1778021640 | 25° C | 34% | 1007.6 hPa | 0 mm | 2.68 m/s, 162° | - | - |
| 1778021340 | 25.56° C | 33% | 1007.6 hPa | 0 mm | 3.13 m/s, 187° | - | - |
* Rain latest hour (hover to see other rain measurements)
** Current wind speed in m/s (hover to see current wind gust speed)